• In Russia
  • List of Countries
  • For 7 days
  • Water Temperature
  • Satellite Maps
  • Weather Map
  • Weather Widgets
  • user-avatar
    Login

    Hourly Weather Innsbruck

    Today, 5 December, Monday

    Time Temperature Precipitation Wind Pressure Humidity
    00:00 -10°C° 0 mm 2 mps 595 mmHg 90%
    01:00 -10°C° 0 mm 2 mps 595 mmHg 89%
    02:00 -10°C° 0 mm 2 mps 595 mmHg 89%
    03:00 -10°C° 0 mm 2 mps 595 mmHg 89%
    04:00 -10°C° 0 mm 2 mps 595 mmHg 89%
    05:00 -10°C° 0 mm 2 mps 595 mmHg 89%
    06:00 -10°C° 0 mm 2 mps 595 mmHg 89%
    07:00 -10°C° 0 mm 1 mps 595 mmHg 88%
    08:00 -9°C° 0 mm 1 mps 596 mmHg 84%
    09:00 -7°C° 0 mm 1 mps 597 mmHg 81%
    10:00 -4°C° 0 mm 1 mps 598 mmHg 77%
    11:00 -3°C° 0 mm 1 mps 598 mmHg 76%
    12:00 -1°C° 0 mm 1 mps 599 mmHg 74%
    13:00 -2°C° 0 mm 0 mps 599 mmHg 71%
    14:00 -4°C° 0 mm 0 mps 597 mmHg 78%
    15:00 -7°C° 0 mm 0 mps 596 mmHg 85%
    16:00 -10°C° 0 mm 0 mps 594 mmHg 92%
    17:00 -11°C° 0 mm 0 mps 594 mmHg 91%
    18:00 -12°C° 0 mm 1 mps 593 mmHg 90%
    19:00 -13°C° 0 mm 1 mps 593 mmHg 89%
    20:00 -13°C° 0 mm 1 mps 593 mmHg 87%
    21:00 -13°C° 0 mm 1 mps 593 mmHg 85%
    22:00 -13°C° 0 mm 1 mps 593 mmHg 83%
    23:00 -13°C° 0 mm 1 mps 593 mmHg 80%

    Tomorrow, 6 December, Tuesday

    Time Temperature Precipitation Wind Pressure Humidity
    00:00 -12°C° 0 mm 1 mps 594 mmHg 77%
    01:00 -12°C° 0 mm 1 mps 594 mmHg 75%
    02:00 -12°C° 0 mm 1 mps 594 mmHg 72%
    03:00 -11°C° 0 mm 1 mps 595 mmHg 70%
    04:00 -11°C° 0 mm 1 mps 595 mmHg 67%
    05:00 -11°C° 0 mm 1 mps 595 mmHg 69%
    06:00 -11°C° 0 mm 1 mps 595 mmHg 70%
    07:00 -11°C° 0 mm 1 mps 596 mmHg 71%
    08:00 -9°C° 0 mm 1 mps 597 mmHg 69%
    09:00 -7°C° 0 mm 1 mps 598 mmHg 68%
    10:00 -3°C° 0 mm 1 mps 600 mmHg 67%
    11:00 -2°C° 0 mm 1 mps 600 mmHg 67%
    12:00 -1°C° 0 mm 1 mps 600 mmHg 68%
    13:00 0°C° 0 mm 1 mps 600 mmHg 68%
    14:00 -2°C° 0 mm 1 mps 599 mmHg 73%
    15:00 -4°C° 0 mm 1 mps 598 mmHg 78%
    16:00 -7°C° 0 mm 1 mps 597 mmHg 83%
    17:00 -8°C° 0 mm 1 mps 597 mmHg 82%
    18:00 -9°C° 0 mm 1 mps 597 mmHg 81%
    19:00 -10°C° 0 mm 1 mps 597 mmHg 80%
    20:00 -11°C° 0 mm 1 mps 597 mmHg 75%
    21:00 -11°C° 0 mm 1 mps 597 mmHg 71%
    22:00 -11°C° 0 mm 1 mps 596 mmHg 66%
    23:00 -12°C° 0 mm 1 mps 596 mmHg 64%

    Day after tomorrow, 7 December, Wednesday

    Time Temperature Precipitation Wind Pressure Humidity
    00:00 -12°C° 0 mm 1 mps 596 mmHg 62%
    01:00 -12°C° 0 mm 1 mps 596 mmHg 60%
    02:00 -12°C° 0 mm 1 mps 596 mmHg 58%
    03:00 -12°C° 0 mm 1 mps 596 mmHg 56%
    04:00 -12°C° 0 mm 1 mps 596 mmHg 54%
    05:00 -12°C° 0 mm 1 mps 596 mmHg 51%
    06:00 -12°C° 0 mm 1 mps 596 mmHg 49%
    07:00 -12°C° 0 mm 1 mps 596 mmHg 47%
    08:00 -9°C° 0 mm 1 mps 598 mmHg 49%
    09:00 -6°C° 0 mm 1 mps 600 mmHg 50%
    10:00 -2°C° 0 mm 1 mps 602 mmHg 52%
    11:00 -2°C° 0 mm 0 mps 602 mmHg 54%
    12:00 -1°C° 0 mm 0 mps 602 mmHg 56%
    13:00 0°C° 0 mm 0 mps 603 mmHg 58%
    14:00 -2°C° 0 mm 0 mps 601 mmHg 61%
    15:00 -5°C° 0 mm 0 mps 600 mmHg 63%
    16:00 -8°C° 0 mm 0 mps 598 mmHg 66%
    17:00 -8°C° 0 mm 1 mps 598 mmHg 64%
    18:00 -9°C° 0 mm 1 mps 598 mmHg 61%
    19:00 -9°C° 0 mm 1 mps 598 mmHg 59%
    20:00 -9°C° 0 mm 1 mps 598 mmHg 59%
    21:00 -9°C° 0 mm 1 mps 598 mmHg 58%
    22:00 -9°C° 0 mm 1 mps 599 mmHg 58%
    23:00 -9°C° 0 mm 1 mps 599 mmHg 57%

    8 December, Thursday

    Time Temperature Precipitation Wind Pressure Humidity
    00:00 -8°C° 0 mm 1 mps 599 mmHg 56%
    01:00 -8°C° 0 mm 1 mps 599 mmHg 55%
    02:00 -8°C° 0 mm 1 mps 599 mmHg 55%
    03:00 -8°C° 0 mm 1 mps 599 mmHg 55%
    04:00 -8°C° 0 mm 1 mps 599 mmHg 56%
    05:00 -8°C° 0 mm 1 mps 599 mmHg 55%
    06:00 -8°C° 0 mm 1 mps 599 mmHg 54%
    07:00 -8°C° 0 mm 1 mps 599 mmHg 53%
    08:00 -6°C° 0 mm 1 mps 600 mmHg 54%
    09:00 -3°C° 0 mm 1 mps 601 mmHg 56%
    10:00 -1°C° 0 mm 1 mps 603 mmHg 57%
    11:00 0°C° 0 mm 1 mps 603 mmHg 59%
    12:00 +2°C° 0 mm 1 mps 603 mmHg 61%
    13:00 +3°C° 0 mm 1 mps 604 mmHg 63%
    14:00 0°C° 0 mm 1 mps 602 mmHg 63%
    15:00 -2°C° 0 mm 1 mps 601 mmHg 62%
    16:00 -4°C° 0 mm 1 mps 600 mmHg 62%
    17:00 -4°C° 0 mm 1 mps 600 mmHg 60%
    18:00 -6°C° 0 mm 1 mps 600 mmHg 58%
    19:00 -6°C° 0 mm 1 mps 600 mmHg 57%
    20:00 -4°C° 0 mm 1 mps 601 mmHg 56%
    21:00 -4°C° 0 mm 1 mps 601 mmHg 55%
    22:00 -4°C° 0 mm 1 mps 601 mmHg 54%
    23:00 -4°C° 0 mm 1 mps 601 mmHg 53%

    9 December, Friday

    Time Temperature Precipitation Wind Pressure Humidity
    00:00 -6°C° 0 mm 1 mps 600 mmHg 52%
    01:00 -6°C° 0 mm 1 mps 600 mmHg 51%
    02:00 -7°C° 0 mm 1 mps 600 mmHg 50%
    03:00 -7°C° 0 mm 1 mps 600 mmHg 49%
    04:00 -7°C° 0 mm 1 mps 600 mmHg 48%
    05:00 -7°C° 0 mm 1 mps 600 mmHg 47%
    06:00 -7°C° 0 mm 1 mps 599 mmHg 45%
    07:00 -8°C° 0 mm 1 mps 599 mmHg 43%
    08:00 -4°C° 0 mm 1 mps 600 mmHg 46%
    09:00 -2°C° 0 mm 1 mps 602 mmHg 48%
    10:00 0°C° 0 mm 1 mps 603 mmHg 50%
    11:00 +1°C° 0 mm 1 mps 603 mmHg 54%
    12:00 +1°C° 0 mm 0 mps 603 mmHg 57%
    13:00 +3°C° 0 mm 0 mps 603 mmHg 61%
    14:00 0°C° 0 mm 0 mps 602 mmHg 58%
    15:00 -3°C° 0 mm 0 mps 600 mmHg 55%
    16:00 -4°C° 0 mm 1 mps 598 mmHg 52%
    17:00 -6°C° 0 mm 1 mps 598 mmHg 55%
    18:00 -7°C° 0 mm 1 mps 597 mmHg 58%
    19:00 -8°C° 0 mm 0 mps 597 mmHg 61%
    20:00 -8°C° 0 mm 1 mps 597 mmHg 61%
    21:00 -7°C° 0 mm 1 mps 597 mmHg 61%
    22:00 -7°C° 0 mm 1 mps 597 mmHg 61%
    23:00 -6°C° 0 mm 1 mps 598 mmHg 59%

    10 December, Saturday

    Time Temperature Precipitation Wind Pressure Humidity
    00:00 -6°C° 0 mm 1 mps 598 mmHg 56%
    01:00 -6°C° 0 mm 2 mps 598 mmHg 54%
    02:00 -6°C° 0 mm 2 mps 598 mmHg 57%
    03:00 -6°C° 0 mm 2 mps 598 mmHg 60%
    04:00 -6°C° 0 mm 2 mps 597 mmHg 63%
    05:00 -7°C° 0 mm 2 mps 597 mmHg 63%
    06:00 -7°C° 0 mm 2 mps 597 mmHg 62%
    07:00 -7°C° 0 mm 2 mps 597 mmHg 62%
    08:00 -5°C° 0 mm 2 mps 598 mmHg 61%
    09:00 -2°C° 0 mm 1 mps 599 mmHg 59%
    10:00 0°C° 0 mm 1 mps 600 mmHg 58%
    11:00 +1°C° 0 mm 1 mps 600 mmHg 60%
    12:00 +3°C° 0 mm 1 mps 600 mmHg 63%
    13:00 +4°C° 0 mm 1 mps 600 mmHg 66%
    14:00 +1°C° 0 mm 1 mps 599 mmHg 67%
    15:00 -2°C° 0 mm 1 mps 597 mmHg 68%
    16:00 -6°C° 0 mm 0 mps 595 mmHg 70%
    17:00 -6°C° 0 mm 1 mps 595 mmHg 68%
    18:00 -7°C° 0 mm 1 mps 595 mmHg 67%
    19:00 -7°C° 0 mm 1 mps 594 mmHg 65%
    20:00 -6°C° 0 mm 1 mps 595 mmHg 61%
    21:00 -6°C° 0 mm 1 mps 595 mmHg 57%
    22:00 -6°C° 0 mm 2 mps 596 mmHg 53%
    23:00 -6°C° 0 mm 2 mps 595 mmHg 55%
    Show more